Tracking 28514 objects as of 24-Feb-2024
HD Live streaming from Space Station
objects crossing your sky now

STARLINK 1031

Track STARLINK 1031 now!
10-day predictions
STARLINK 1031 is classified as:


NORAD ID: 44736
Int'l Code: 2019-074Z
Perigee: 553.4 km
Apogee: 555.4 km
Inclination: 53.1 °
Period: 95.6 minutes
Semi major axis: 6925 km
RCS: Unknown
Launch date: November 11, 2019
Source: United States (US)
Launch site: AIR FORCE EASTERN TEST RANGE (AFETR)
Your satellite tracking list
Your tracking list is empty




NASA's NSSDC Master Catalog

Two Line Element Set (TLE):
1 44736U 19074Z   24055.08442570  .00000971  00000-0  84082-4 0  9994
2 44736  53.0549 309.2816 0001422  81.8548 278.2602 15.06393772236410
Source of the keplerian elements: AFSPC